Flag for Spain Weather past 2 weeks in Santa Cruz de Tenerife, Canary Islands, Spain

Now
68 °F

Scattered clouds.


Feels Like: 68 °F
Forecast: 74 / 78 °F
Wind: 16 mph from Northwest

Location: Tenerife / Los Rodeos

Current Time: Oct 1, 2014 at 7:30:38 PM

Latest Report: Oct 1, 2014 at 6:30 PM


Visibility: N/A

Pressure: 30.12 "Hg

Humidity: 69%

Dew point: 57 °F

Location of Santa Cruz de TenerifeLocation

Historic Weather in Santa Cruz de Tenerife — Graph

°F

Santa Cruz de Tenerife temperature yesterday

Maximum temperature yesterday: 70 °F (at 12:30 PM)
Minimum temperature yesterday: 63 °F (at 6:00 AM)
Average temperature yesterday: 66 °F

Past Weeks' High & Low Weather Summary

 TemperatureHumidityPressure
High79 °F (Sep 29, 1:30 PM)100% (Sep 16, 6:30 PM)30.30 "Hg (Sep 16, 6:30 PM)
Low59 °F (Sep 21, 6:30 AM)41% (Sep 29, 3:00 PM)30.01 "Hg (Sep 16, 6:00 PM)
Average67 °F78%30.14 "Hg
* Reported Sep 16 6:00 PM — Oct 1 6:30 PM, Santa Cruz de Tenerife, Weather by CustomWeather, © 2014

Note: Actual official high and low records may vary slightly from our data, if they occured in-between our weather recording intervals... More about our weather records

Advertising

Santa Cruz de Tenerife weather history for previous 24 hours

 ConditionsComfort  
Time TempWeatherWind HumidityBarometerVisibility
6:30 PM
Oct 1
68 °FScattered clouds.16 mph69%30.12 "HgN/A
6:00 PM70 °FScattered clouds.16 mph69%30.12 "HgN/A
5:30 PM70 °FScattered clouds.15 mph64%30.12 "HgN/A
5:00 PM70 °FScattered clouds.16 mph64%30.12 "HgN/A
4:30 PM70 °FScattered clouds.15 mph64%30.12 "HgN/A
4:00 PM72 °FScattered clouds.20 mph61%30.12 "HgN/A
3:30 PM72 °FScattered clouds.18 mph65%30.12 "HgN/A
3:00 PM72 °FScattered clouds.15 mph65%30.12 "HgN/A
2:30 PM70 °FScattered clouds.14 mph64%30.15 "HgN/A
2:00 PM70 °FScattered clouds.14 mph69%30.15 "HgN/A
1:30 PM70 °FScattered clouds.13 mph69%30.15 "HgN/A
1:00 PM70 °FScattered clouds.12 mph69%30.15 "HgN/A
12:30 PM68 °FPartly sunny.14 mph78%30.18 "HgN/A
12:00 PM68 °FScattered clouds.13 mph73%30.18 "HgN/A
11:30 AM68 °FScattered clouds.13 mph73%30.18 "HgN/A
11:00 AM68 °FPassing clouds.12 mph73%30.18 "HgN/A
10:30 AM66 °FPassing clouds.12 mph78%30.18 "HgN/A
10:00 AM66 °FScattered clouds.13 mph73%30.18 "HgN/A
9:30 AM64 °FScattered clouds.12 mph83%30.15 "HgN/A
9:00 AM63 °FScattered clouds.9 mph88%30.15 "HgN/A
8:30 AM63 °FPassing clouds.12 mph83%30.15 "HgN/A
8:00 AM63 °FPassing clouds.12 mph83%30.15 "HgN/A
7:30 AM63 °FPassing clouds.12 mph88%30.15 "HgN/A
7:00 AM63 °FPassing clouds.13 mph83%30.15 "HgN/A
6:30 AM63 °FPassing clouds.13 mph83%30.12 "HgN/A
6:00 AM63 °FPassing clouds.13 mph88%30.12 "HgN/A
11:00 PM
Sep 30
63 °FPassing clouds.13 mph88%30.21 "HgN/A
10:30 PM63 °FPassing clouds.13 mph88%30.18 "HgN/A
9:30 PM64 °FPassing clouds.15 mph83%30.18 "HgN/A
9:00 PM64 °FPassing clouds.16 mph83%30.18 "HgN/A
8:30 PM64 °FScattered clouds.17 mph88%30.18 "HgN/A
8:00 PM64 °FScattered clouds.16 mph88%30.18 "HgN/A
7:30 PM64 °FScattered clouds.18 mph88%30.15 "HgN/A
7:00 PM66 °FPartly sunny.18 mph83%30.15 "HgN/A
Weather by CustomWeather, © 2014

See weather overviewHow to use our weather pages